Home   Weather   Royan   Past weeks

Flag for France Past Weather in Royan, Poitou-Charentes, France — Yesterday and Last 2 Weeks

Now
54 °F

Sunny.


Feels Like: 54 °F
Forecast: 42 / 65 °F
Wind: 2 mph from North

Location: Cognac Airport

Current Time: Apr 28, 2017 at 10:15:29 pm

Latest Report: Apr 28, 2017 at 9:00 pm


Visibility: 10 mi

Pressure: 30.07 "Hg

Humidity: 44%

Dew Point: 32 °F

Location of RoyanLocation

Past Weather in Royan — Graph

°F

Royan Temperature Yesterday

Maximum temperature yesterday: 57 °F (at 3:30 pm)
Minimum temperature yesterday: 34 °F (at 6:30 am)
Average temperature yesterday: 47 °F

High & Low Weather Summary for the Past Weeks

 TemperatureHumidityPressure
High75 °F (Apr 22, 3:30 pm)94% (Apr 16, 8:00 am)30.48 "Hg (Apr 16, 8:00 am)
Low34 °F (Apr 27, 6:30 am)12% (Apr 21, 2:30 pm)29.80 "Hg (Apr 25, 6:30 am)
Average53 °F54%30.17 "Hg
* Reported Apr 13 9:00 pm — Apr 28 9:00 pm, Royan, Weather by CustomWeather, © 2017

Note: Actual official high and low records may vary slightly from our data, if they occured in-between our weather recording intervals... More about our weather records

Advertising

Royan Weather History for the Previous 24 Hours

Scroll right to see more
 ConditionsComfort  
Time TempWeatherWind HumidityBarometerVisibility
9:00 pm
Fri, Apr 28
54 °FSunny.2 mph44%30.07 "Hg10 mi
8:30 pm57 °FSunny.1 mph41%30.07 "Hg10 mi
8:00 pm57 °FSunny.No wind39%30.07 "Hg10 mi
7:30 pm57 °FPassing clouds.3 mph39%30.07 "HgN/A
7:00 pm59 °FPassing clouds.3 mph36%30.07 "HgN/A
6:30 pm57 °FSunny.3 mph39%30.09 "Hg10 mi
6:00 pm61 °FSunny.1 mph36%30.09 "Hg10 mi
5:30 pm59 °FSunny.2 mph39%30.09 "Hg10 mi
5:00 pm57 °FPassing clouds.3 mph39%30.09 "HgN/A
4:30 pm59 °FPassing clouds.6 mph39%30.09 "HgN/A
4:00 pm57 °FSunny.2 mph41%30.09 "Hg10 mi
3:30 pm59 °FSunny.3 mph36%30.09 "Hg10 mi
3:00 pm57 °FSunny.5 mph41%30.09 "Hg10 mi
2:30 pm59 °FSunny.3 mph42%30.09 "Hg10 mi
2:00 pm55 °FPassing clouds.5 mph41%30.12 "HgN/A
1:30 pm57 °FPassing clouds.7 mph39%30.12 "HgN/A
1:00 pm55 °FPassing clouds.3 mph41%30.12 "HgN/A
12:30 pm55 °FPartly sunny.3 mph41%30.12 "HgN/A
12:00 pm55 °FPassing clouds.8 mph41%30.12 "HgN/A
11:30 am54 °FPassing clouds.8 mph47%30.12 "HgN/A
11:00 am52 °FPassing clouds.6 mph50%30.12 "HgN/A
10:30 am50 °FPassing clouds.3 mph58%30.12 "HgN/A
9:30 am45 °FSunny.2 mph71%30.12 "Hg10 mi
9:00 am41 °FSunny.2 mph81%30.12 "Hg10 mi
8:30 am39 °FSunny.1 mph81%30.12 "Hg10 mi
8:00 am36 °FSunny.No wind87%30.12 "Hg10 mi
7:30 am36 °FSunny.No wind87%30.12 "Hg10 mi
7:00 am34 °FClear.2 mph87%30.12 "HgN/A
6:30 am36 °FClear.No wind87%30.12 "Hg10 mi
6:00 am36 °FClear.No wind87%30.12 "Hg10 mi
5:30 am36 °FClear.No wind87%30.12 "Hg10 mi
5:00 am37 °FClear.No wind87%30.12 "Hg10 mi
4:30 am39 °FClear.No wind81%30.12 "Hg10 mi
4:00 am39 °FClear.1 mph81%30.12 "Hg10 mi
3:30 am41 °FClear.1 mph81%30.12 "Hg10 mi
3:00 am41 °FClear.2 mph76%30.12 "Hg10 mi
2:30 am43 °FClear.3 mph76%30.15 "Hg10 mi
2:00 am43 °FClear.3 mph71%30.15 "Hg10 mi
1:30 am45 °FClear.3 mph66%30.15 "Hg10 mi
1:00 am43 °FClear.6 mph71%30.15 "Hg10 mi
12:30 am43 °FClear.6 mph71%30.15 "Hg10 mi
12:00 am43 °FClear.7 mph71%30.15 "Hg10 mi
11:30 pm
Thu, Apr 27
45 °FClear.7 mph66%30.15 "Hg10 mi
11:00 pm46 °FClear.8 mph62%30.15 "Hg10 mi
10:30 pm46 °FClear.8 mph57%30.12 "Hg10 mi
10:00 pm48 °FClear.12 mph54%30.12 "Hg10 mi
Weather by CustomWeather, © 2017

See weather overviewHow to use our weather pages